Date String (YYYY-MM-DD hh:mm:ss) UTC,Instrument flags,absolute air pressure of the measurement (hPa),sample flow rate (lpm),inlet stack bypass flow (lpm),air temperature of the measurement (°C),ambient temperature measured by the external sensor (°C),aerosol sample conditioner tube jacket temperature (°C),OPC LED temperature (°C),internal box temperature (°C),relative humidity of the measurement (%),span deviation,mass concentration of particles derived from Lorenz-Mie calculation of OPC scattering (μg/m³),mass concentration of particles derived from Lorenz-Mie calculation of OPC scattering (μg/m³),mass concentration of particles derived from Lorenz-Mie calculation of OPC scattering (μg/m³)
DateTimeUTC,F1_M11,P_M11,Q1_M11,Q2_M11,T1_M11,T2_M11,T3_M11,T4_M11,T5_M11,U1_M11,ZSPAN_M11,X2_M11,X0_M11,X1_M11
2023-08-23 00:00:00,SystemResetWarning,0833.7,5.01,000.00,027.4,024.1,000.0,035.6,028.9,22.6,0000.3,0006.48,0014.13,0005.55
2023-08-23 00:01:00,SystemResetWarning,0833.6,5.01,000.00,027.4,024.5,000.0,035.6,028.9,22.8,0000.3,0006.41,0012.98,0005.55
2023-08-23 00:02:00,SystemResetWarning,0833.6,5.00,000.00,027.4,024.9,000.0,035.7,029.0,22.3,0000.4,0006.38,0012.75,0005.55
2023-08-23 00:03:00,SystemResetWarning,0833.5,5.01,000.00,027.5,025.4,000.0,035.7,029.2,22.6,0000.7,0006.37,0012.25,0005.56
2023-08-23 00:04:00,SystemResetWarning,0833.5,5.00,000.00,027.5,025.8,000.0,035.8,029.3,22.9,0001.2,0006.37,0011.80,0005.58
2023-08-23 00:05:00,SystemResetWarning,0833.5,5.00,000.00,027.6,026.2,000.0,035.8,029.4,22.9,0001.3,0006.39,0011.82,0005.59
2023-08-23 00:06:00,SystemResetWarning,0833.5,5.00,000.00,027.6,026.2,000.0,035.8,029.5,22.2,0001.9,0006.36,0011.67,0005.58
2023-08-23 00:07:00,SystemResetWarning,0833.4,4.98,000.00,027.6,024.8,000.0,035.7,029.2,21.8,0001.9,0006.33,0011.44,0005.58
2023-08-23 00:08:00,SystemResetWarning,0833.4,5.01,000.00,027.5,024.0,000.0,035.6,029.0,21.8,0002.2,0006.33,0011.64,0005.58
2023-08-23 00:09:00,SystemResetWarning,0833.4,5.01,000.00,027.5,024.4,000.0,035.6,029.0,22.2,0002.4,0006.36,0011.93,0005.58
2023-08-23 00:10:00,SystemResetWarning,0833.4,4.99,000.00,027.5,024.8,000.0,035.7,029.0,22.3,0002.2,0006.35,0010.99,0005.58
2023-08-23 00:11:00,SystemResetWarning,0833.4,5.00,000.00,027.5,025.2,000.0,035.7,029.2,22.0,0001.7,0006.34,0010.89,0005.60
2023-08-23 00:12:00,SystemResetWarning,0833.4,5.00,000.00,027.5,025.6,000.0,035.8,029.3,22.2,0001.6,0006.35,0011.04,0005.61
2023-08-23 00:13:00,SystemResetWarning,0833.4,5.00,000.00,027.6,026.0,000.0,035.8,029.4,22.4,0002.1,0006.33,0011.21,0005.61
2023-08-23 00:14:00,SystemResetWarning,0833.4,4.98,000.00,027.6,025.3,000.0,035.7,029.2,22.7,0002.1,0006.29,0011.54,0005.61
2023-08-23 00:15:00,SystemResetWarning,0833.4,5.00,000.00,027.5,024.0,000.0,035.7,028.9,23.5,0001.9,0006.26,0011.64,0005.61
2023-08-23 00:16:00,SystemResetWarning,0833.3,5.01,000.00,027.4,024.0,000.0,035.6,028.9,23.2,0001.7,0006.24,0011.46,0005.60
2023-08-23 00:17:00,SystemResetWarning,0833.4,5.00,000.00,027.4,024.4,000.0,035.6,028.9,22.1,0001.1,0006.27,0011.43,0005.61
2023-08-23 00:18:00,SystemResetWarning,0833.4,4.99,000.00,027.4,024.8,000.0,035.7,029.0,21.9,0000.8,0006.26,0011.31,0005.61
2023-08-23 00:19:00,SystemResetWarning,0833.4,5.00,000.00,027.4,025.3,000.0,035.7,029.1,22.4,0000.6,0006.23,0011.14,0005.60
2023-08-23 00:20:00,SystemResetWarning,0833.4,5.01,000.00,027.5,025.7,000.0,035.7,029.3,22.3,0000.9,0006.22,0010.92,0005.60
2023-08-23 00:21:00,SystemResetWarning,0833.4,5.00,000.00,027.5,026.1,000.0,035.8,029.4,22.7,0001.1,0006.27,0011.64,0005.59
2023-08-23 00:22:00,SystemResetWarning,0833.4,4.99,000.00,027.6,026.2,000.0,035.8,029.4,21.9,0001.4,0006.26,0012.32,0005.56
2023-08-23 00:23:00,SystemResetWarning,0833.4,4.98,000.00,027.6,024.7,000.0,035.7,029.1,21.3,0001.7,0006.26,0012.47,0005.55
2023-08-23 00:24:00,SystemResetWarning,0833.4,5.01,000.00,027.5,023.9,000.0,035.6,028.9,21.5,0001.5,0006.31,0012.47,0005.56
2023-08-23 00:25:00,SystemResetWarning,0833.4,5.01,000.00,027.4,024.3,000.0,035.6,028.9,22.2,0001.3,0006.32,0011.81,0005.57
2023-08-23 00:26:00,SystemResetWarning,0833.4,5.00,000.00,027.4,024.7,000.0,035.7,029.0,22.3,0000.8,0006.34,0011.66,0005.57
2023-08-23 00:27:00,SystemResetWarning,0833.4,5.00,000.00,027.4,025.1,000.0,035.7,029.1,22.6,0001.0,0006.32,0011.61,0005.58
2023-08-23 00:28:00,SystemResetWarning,0833.4,5.00,000.00,027.5,025.6,000.0,035.7,029.3,22.1,0001.2,0006.28,0012.13,0005.57
2023-08-23 00:29:00,SystemResetWarning,0833.4,5.00,000.00,027.5,026.0,000.0,035.8,029.4,22.3,0001.4,0006.27,0012.34,0005.56
2023-08-23 00:30:00,SystemResetWarning,0833.4,5.01,000.00,027.6,026.3,000.0,035.8,029.5,22.7,0001.5,0006.28,0013.64,0005.57
2023-08-23 00:31:00,SystemResetWarning,0833.3,4.99,000.00,027.6,025.7,000.0,035.8,029.3,22.9,0001.4,0006.31,0013.66,0005.59
2023-08-23 00:32:00,SystemResetWarning,0833.3,4.99,000.00,027.6,024.3,000.0,035.7,029.0,21.9,0001.5,0006.25,0013.14,0005.60
2023-08-23 00:33:00,SystemResetWarning,0833.3,5.02,000.00,027.5,024.2,000.0,035.6,029.0,21.9,0001.6,0006.25,0012.57,0005.61
2023-08-23 00:34:00,SystemResetWarning,0833.3,5.00,000.00,027.5,024.5,000.0,035.7,029.0,21.6,0001.4,0006.29,0012.80,0005.60
2023-08-23 00:35:00,SystemResetWarning,0833.2,5.00,000.00,027.5,024.9,000.0,035.7,029.1,22.0,0001.8,0006.25,0013.03,0005.59
2023-08-23 00:36:00,SystemResetWarning,0833.3,5.00,000.00,027.5,025.4,000.0,035.7,029.2,22.4,0002.0,0006.24,0013.00,0005.59
2023-08-23 00:37:00,SystemResetWarning,0833.3,5.00,000.00,027.6,025.8,000.0,035.8,029.4,22.4,0002.3,0006.23,0012.97,0005.59
2023-08-23 00:38:00,SystemResetWarning,0833.3,4.99,000.00,027.6,025.9,000.0,035.8,029.4,22.4,0002.5,0006.23,0012.94,0005.59
2023-08-23 00:39:00,SystemResetWarning,0833.3,4.99,000.00,027.6,024.5,000.0,035.7,029.1,22.7,0002.7,0006.25,0012.47,0005.60
2023-08-23 00:40:00,SystemResetWarning,0833.2,5.01,000.00,027.5,023.8,000.0,035.6,028.9,23.2,0002.7,0006.29,0012.26,0005.62
2023-08-23 00:41:00,SystemResetWarning,0833.2,5.02,000.00,027.4,024.2,000.0,035.6,028.9,23.3,0002.6,0006.32,0011.13,0005.62
2023-08-23 00:42:00,SystemResetWarning,0833.2,4.99,000.00,027.4,024.6,000.0,035.7,028.9,23.3,0002.5,0006.34,0011.20,0005.61
2023-08-23 00:43:00,SystemResetWarning,0833.2,4.99,000.00,027.4,025.0,000.0,035.7,029.1,23.5,0002.3,0006.34,0011.40,0005.60
2023-08-23 00:44:00,SystemResetWarning,0833.2,5.00,000.00,027.5,025.5,000.0,035.8,029.2,23.5,0002.0,0006.39,0011.93,0005.62
2023-08-23 00:45:00,SystemResetWarning,0833.2,5.01,000.00,027.5,025.9,000.0,035.8,029.4,23.7,0001.9,0006.36,0012.26,0005.64
2023-08-23 00:46:00,SystemResetWarning,0833.2,5.01,000.00,027.6,026.2,000.0,035.8,029.5,24.4,0001.4,0006.38,0011.86,0005.66
2023-08-23 00:47:00,SystemResetWarning,0833.2,4.97,000.00,027.6,025.6,000.0,035.8,029.3,25.3,0000.5,0006.41,0012.64,0005.67
2023-08-23 00:48:00,SystemResetWarning,0833.1,5.01,000.00,027.5,024.1,000.0,035.7,029.0,26.2,0000.6,0006.45,0013.44,0005.70
2023-08-23 00:49:00,SystemResetWarning,0833.1,5.01,000.00,027.5,024.0,000.0,035.6,028.9,26.8,0000.6,0006.45,0013.95,0005.71
2023-08-23 00:50:00,SystemResetWarning,0833.1,5.01,000.00,027.4,024.4,000.0,035.7,028.9,27.2,0000.6,0006.51,0014.35,0005.73
2023-08-23 00:51:00,SystemResetWarning,0833.2,4.99,000.00,027.4,024.8,000.0,035.7,029.0,27.3,0000.7,0006.54,0014.40,0005.74
2023-08-23 00:52:00,SystemResetWarning,0833.2,5.00,000.00,027.5,025.3,000.0,035.7,029.2,26.0,0000.8,0006.52,0014.68,0005.74
2023-08-23 00:53:00,SystemResetWarning,0833.2,5.00,000.00,027.5,025.7,000.0,035.8,029.3,26.4,0001.2,0006.51,0014.98,0005.76
2023-08-23 00:54:00,SystemResetWarning,0833.2,5.00,000.00,027.6,026.1,000.0,035.8,029.4,26.8,0001.0,0006.53,0015.47,0005.76
2023-08-23 00:55:00,SystemResetWarning,0833.2,4.98,000.00,027.6,025.4,000.0,035.8,029.3,27.1,0001.4,0006.51,0015.07,0005.77
2023-08-23 00:56:00,SystemResetWarning,0833.2,5.00,000.00,027.5,024.0,000.0,035.7,029.0,27.3,0001.4,0006.51,0014.60,0005.75
2023-08-23 00:57:00,SystemResetWarning,0833.2,5.00,000.00,027.4,023.9,000.0,035.6,028.9,28.1,0001.7,0006.52,0014.88,0005.75
2023-08-23 00:58:00,SystemResetWarning,0833.2,5.01,000.00,027.4,024.2,000.0,035.6,028.9,27.9,0001.9,0006.50,0014.30,0005.75
2023-08-23 00:59:00,SystemResetWarning,0833.2,4.99,000.00,027.4,024.7,000.0,035.7,029.0,27.1,0001.8,0006.50,0014.21,0005.74
